TimePST,TemperatureF,Dew PointF,Humidity,Sea Level PressureIn,VisibilityMPH,Wind Direction,Wind SpeedMPH,Gust SpeedMPH,PrecipitationIn,Events,Conditions,WindDirDegrees,DateUTC
12:53 AM,43.0,41.0,93,29.58,6.0,SSE,4.6,-,0.01,Rain,Light Rain,150,2012-11-17 08:53:00
1:53 AM,43.0,42.1,97,29.55,9.0,SSE,3.5,-,0.01,Rain,Light Rain,160,2012-11-17 09:53:00
2:53 AM,43.0,42.1,97,29.52,7.0,Calm,Calm,-,0.00,Rain,Light Rain,0,2012-11-17 10:53:00
3:53 AM,44.1,43.0,96,29.50,10.0,WSW,6.9,-,0.01,Rain,Light Rain,240,2012-11-17 11:53:00
4:53 AM,44.1,42.1,93,29.48,10.0,ESE,6.9,-,0.00,Rain,Light Rain,120,2012-11-17 12:53:00
5:53 AM,48.9,46.0,90,29.44,9.0,ESE,8.1,-,0.05,Rain,Light Rain,120,2012-11-17 13:53:00
6:53 AM,48.9,46.0,90,29.41,10.0,WSW,3.5,-,0.00,,Overcast,250,2012-11-17 14:53:00
7:53 AM,45.0,43.0,93,29.38,10.0,Calm,Calm,-,N/A,,Scattered Clouds,0,2012-11-17 15:53:00
8:53 AM,50.0,46.9,89,29.41,10.0,WNW,12.7,18.4,0.00,Rain,Light Rain,300,2012-11-17 16:53:00
9:16 AM,48.9,46.0,90,29.43,5.0,WNW,15.0,32.2,0.03,Rain,Rain,300,2012-11-17 17:16:00
9:53 AM,48.0,45.0,89,29.42,10.0,WNW,6.9,-,0.06,,Mostly Cloudy,300,2012-11-17 17:53:00
10:01 AM,48.0,46.0,93,29.42,10.0,WNW,8.1,-,N/A,,Overcast,300,2012-11-17 18:01:00
10:25 AM,48.9,44.1,83,29.43,10.0,WNW,9.2,-,0.00,Rain,Light Rain,300,2012-11-17 18:25:00
10:53 AM,48.9,45.0,86,29.45,10.0,West,9.2,-,0.00,Rain,Light Rain,280,2012-11-17 18:53:00
11:53 AM,48.0,43.0,83,29.47,10.0,WNW,3.5,-,0.00,Rain,Light Rain,290,2012-11-17 19:53:00
12:53 PM,46.9,42.1,83,29.48,10.0,WNW,13.8,-,0.00,Rain,Light Rain,290,2012-11-17 20:53:00
1:53 PM,48.0,41.0,77,29.48,10.0,NW,8.1,-,0.00,,Scattered Clouds,310,2012-11-17 21:53:00
2:53 PM,48.0,39.9,74,29.49,10.0,West,10.4,-,N/A,,Mostly Cloudy,270,2012-11-17 22:53:00
3:53 PM,46.9,43.0,86,29.52,10.0,East,4.6,-,N/A,,Overcast,100,2012-11-17 23:53:00
4:18 PM,46.9,42.1,83,29.53,10.0,ESE,3.5,-,N/A,,Overcast,120,2012-11-18 00:18:00
4:53 PM,46.9,43.0,86,29.53,10.0,East,6.9,-,0.00,,Overcast,80,2012-11-18 00:53:00
5:34 PM,45.0,42.1,90,29.53,10.0,East,8.1,-,N/A,,Scattered Clouds,100,2012-11-18 01:34:00
5:53 PM,45.0,42.1,90,29.53,10.0,ENE,5.8,-,N/A,,Scattered Clouds,70,2012-11-18 01:53:00
6:01 PM,46.0,43.0,89,29.54,10.0,East,8.1,-,N/A,,Mostly Cloudy,80,2012-11-18 02:01:00
6:23 PM,45.0,42.1,90,29.53,10.0,Variable,3.5,-,N/A,,Mostly Cloudy,0,2012-11-18 02:23:00
6:34 PM,45.0,42.1,90,29.54,10.0,SSE,4.6,-,N/A,,Mostly Cloudy,150,2012-11-18 02:34:00
6:53 PM,45.0,42.1,90,29.54,10.0,South,3.5,-,N/A,,Mostly Cloudy,190,2012-11-18 02:53:00
7:12 PM,46.0,42.1,86,29.55,10.0,SSW,5.8,-,N/A,,Overcast,210,2012-11-18 03:12:00
7:26 PM,46.0,42.1,86,29.55,9.0,Calm,Calm,-,0.00,Rain,Light Rain,0,2012-11-18 03:26:00
7:53 PM,44.1,42.1,93,29.55,10.0,Variable,3.5,-,0.01,Rain,Light Rain,0,2012-11-18 03:53:00
8:53 PM,43.0,37.9,82,29.57,10.0,Calm,Calm,-,0.00,,Partly Cloudy,0,2012-11-18 04:53:00
9:53 PM,44.1,37.9,79,29.58,10.0,West,9.2,-,0.01,Rain,Light Rain,260,2012-11-18 05:53:00
10:53 PM,41.0,39.2,93,29.61,10.0,SW,8.1,-,N/A,,Mostly Cloudy,220,2012-11-18 06:53:00
11:53 PM,42.1,39.9,92,29.63,10.0,Calm,Calm,-,0.00,Rain,Light Rain,0,2012-11-18 07:53:00